Time,TemperatureF,DewpointF,PressureIn,WindDirection,WindDirectionDegrees,WindSpeedMPH,WindSpeedGustMPH,Humidity,HourlyPrecipIn,Conditions,Clouds,dailyrainin,SoftwareType,DateUTC
2013-06-02 00:00:00,66.9,63.5,29.94,SSE,165,6.0,8.0,89,0.00,FEW,FEW,0.00,WeatherDisplay:10.31,2013-06-02 04:00:00,
2013-06-02 00:10:00,66.3,63.0,29.94,South,174,5.0,8.0,89,0.00,FEW,FEW,0.00,WeatherDisplay:10.31,2013-06-02 04:10:00,
2013-06-02 00:20:00,66.0,62.7,29.93,South,180,2.0,6.0,89,0.00,FEW,FEW,0.00,WeatherDisplay:10.31,2013-06-02 04:20:00,
2013-06-02 00:30:00,66.0,62.7,29.93,South,173,1.0,3.0,89,0.00,FEW,FEW,0.00,WeatherDisplay:10.31,2013-06-02 04:30:00,
2013-06-02 00:40:00,66.1,63.1,29.93,SSE,164,2.0,3.0,90,0.00,FEW,FEW,0.00,WeatherDisplay:10.31,2013-06-02 04:40:00,
2013-06-02 00:50:00,65.9,62.6,29.92,SSE,165,1.0,5.0,89,0.00,FEW,FEW,0.00,WeatherDisplay:10.31,2013-06-02 04:50:00,
2013-06-02 01:00:00,65.8,62.8,29.92,South,180,2.0,5.0,90,0.00,FEW,FEW,0.00,WeatherDisplay:10.31,2013-06-02 05:00:00,
2013-06-02 01:10:00,65.6,62.6,29.92,South,177,2.0,7.0,90,0.00,FEW,FEW,0.00,WeatherDisplay:10.31,2013-06-02 05:10:00,
2013-06-02 01:20:00,65.2,62.2,29.92,South,171,3.0,5.0,90,0.00,FEW,FEW,0.00,WeatherDisplay:10.31,2013-06-02 05:20:00,
2013-06-02 01:30:00,65.0,62.0,29.92,South,174,3.0,7.0,90,0.00,FEW,FEW,0.00,WeatherDisplay:10.31,2013-06-02 05:30:00,
2013-06-02 01:40:00,64.7,61.7,29.91,SSE,161,2.0,6.0,90,0.00,FEW,FEW,0.00,WeatherDisplay:10.31,2013-06-02 05:40:00,
2013-06-02 01:50:00,64.2,61.5,29.91,SSE,168,2.0,6.0,91,0.00,FEW,FEW,0.00,WeatherDisplay:10.31,2013-06-02 05:50:00,
2013-06-02 02:00:00,64.1,61.4,29.91,South,176,2.0,5.0,91,0.00,FEW,FEW,0.00,WeatherDisplay:10.31,2013-06-02 06:00:00,
2013-06-02 02:10:00,64.0,61.3,29.90,SSE,163,1.0,6.0,91,0.00,FEW,FEW,0.00,WeatherDisplay:10.31,2013-06-02 06:10:00,
2013-06-02 02:20:00,64.1,61.4,29.90,South,180,2.0,3.0,91,0.00,FEW,FEW,0.00,WeatherDisplay:10.31,2013-06-02 06:20:00,
2013-06-02 02:30:00,64.2,61.8,29.90,South,178,3.0,5.0,92,0.00,FEW,FEW,0.00,WeatherDisplay:10.31,2013-06-02 06:30:00,
2013-06-02 02:40:00,64.2,61.8,29.90,South,178,3.0,7.0,92,0.00,FEW,FEW,0.00,WeatherDisplay:10.31,2013-06-02 06:40:00,
2013-06-02 02:50:00,64.1,61.7,29.89,South,180,3.0,6.0,92,0.00,FEW,FEW,0.00,WeatherDisplay:10.31,2013-06-02 06:50:00,
2013-06-02 03:00:00,64.1,61.7,29.89,South,176,3.0,6.0,92,0.00,FEW,FEW,0.00,WeatherDisplay:10.31,2013-06-02 07:00:00,
2013-06-02 03:10:00,64.1,61.7,29.89,South,180,3.0,8.0,92,0.00,FEW,FEW,0.00,WeatherDisplay:10.31,2013-06-02 07:10:00,
2013-06-02 03:20:00,64.0,61.6,29.89,South,180,3.0,7.0,92,0.00,FEW,FEW,0.00,WeatherDisplay:10.31,2013-06-02 07:20:00,
2013-06-02 03:30:00,63.9,61.5,29.89,South,179,2.0,8.0,92,0.00,FEW,FEW,0.00,WeatherDisplay:10.31,2013-06-02 07:30:00,
2013-06-02 03:40:00,63.7,61.3,29.89,South,177,3.0,8.0,92,0.00,FEW,FEW,0.00,WeatherDisplay:10.31,2013-06-02 07:40:00,
2013-06-02 03:50:00,63.6,61.5,29.89,South,180,3.0,12.0,93,0.00,FEW,FEW,0.00,WeatherDisplay:10.31,2013-06-02 07:50:00,
2013-06-02 04:00:00,63.5,61.5,29.90,South,184,2.0,9.0,93,0.00,FEW,FEW,0.00,WeatherDisplay:10.31,2013-06-02 08:00:00,
2013-06-02 04:10:00,63.6,61.5,29.89,South,177,3.0,5.0,93,0.00,FEW,FEW,0.00,WeatherDisplay:10.31,2013-06-02 08:10:00,
2013-06-02 04:20:00,63.6,61.5,29.89,SSE,156,2.0,3.0,93,0.00,FEW,FEW,0.00,WeatherDisplay:10.31,2013-06-02 08:20:00,
2013-06-02 04:30:00,63.5,61.4,29.89,SSE,164,2.0,5.0,93,0.00,FEW,FEW,0.00,WeatherDisplay:10.31,2013-06-02 08:30:00,
2013-06-02 04:40:00,63.5,61.4,29.89,South,173,2.0,6.0,93,0.00,FEW,FEW,0.00,WeatherDisplay:10.31,2013-06-02 08:40:00,
2013-06-02 04:50:00,63.3,61.2,29.89,South,183,2.0,5.0,93,0.00,FEW,FEW,0.00,WeatherDisplay:10.31,2013-06-02 08:50:00,
2013-06-02 05:00:00,63.2,61.1,29.89,South,183,2.0,3.0,93,0.00,FEW,FEW,0.00,WeatherDisplay:10.31,2013-06-02 09:00:00,
2013-06-02 05:10:00,63.2,61.1,29.89,SSW,195,1.0,3.0,93,0.00,FEW,FEW,0.00,WeatherDisplay:10.31,2013-06-02 09:10:00,
2013-06-02 05:20:00,63.1,61.0,29.89,SSE,168,2.0,3.0,93,0.00,FEW,FEW,0.00,WeatherDisplay:10.31,2013-06-02 09:20:00,
2013-06-02 05:30:00,62.9,60.8,29.89,SSE,164,3.0,6.0,93,0.00,FEW,FEW,0.00,WeatherDisplay:10.31,2013-06-02 09:30:00,
2013-06-02 05:40:00,62.8,61.1,29.89,South,172,1.0,6.0,94,0.00,FEW,FEW,0.00,WeatherDisplay:10.31,2013-06-02 09:40:00,
2013-06-02 05:50:00,63.0,61.2,29.88,South,175,2.0,8.0,94,0.00,FEW,FEW,0.00,WeatherDisplay:10.31,2013-06-02 09:50:00,
2013-06-02 06:00:00,63.2,61.4,29.88,South,176,1.0,6.0,94,0.00,FEW,FEW,0.00,WeatherDisplay:10.31,2013-06-02 10:00:00,
2013-06-02 06:10:00,63.5,61.7,29.89,South,180,3.0,6.0,94,0.00,FEW,FEW,0.00,WeatherDisplay:10.31,2013-06-02 10:10:00,
2013-06-02 06:20:00,63.8,62.0,29.89,SSE,166,3.0,8.0,94,0.00,FEW,FEW,0.00,WeatherDisplay:10.31,2013-06-02 10:20:00,
2013-06-02 06:30:00,64.0,62.3,29.89,South,174,2.0,7.0,94,0.00,FEW,FEW,0.00,WeatherDisplay:10.31,2013-06-02 10:30:00,
2013-06-02 06:40:00,64.3,62.2,29.89,South,176,5.0,8.0,93,0.00,FEW,FEW,0.00,WeatherDisplay:10.31,2013-06-02 10:40:00,
2013-06-02 06:50:00,64.5,62.4,29.88,South,172,3.0,9.0,93,0.00,FEW,FEW,0.00,WeatherDisplay:10.31,2013-06-02 10:50:00,
2013-06-02 07:00:00,64.9,62.5,29.89,South,179,3.0,8.0,92,0.00,FEW,FEW,0.00,WeatherDisplay:10.31,2013-06-02 11:00:00,
2013-06-02 07:10:00,65.2,62.8,29.89,South,177,1.0,8.0,92,0.00,SCT,SCT,0.00,WeatherDisplay:10.31,2013-06-02 11:10:00,
2013-06-02 07:20:00,65.8,63.1,29.89,South,175,6.0,8.0,91,0.00,SCT,SCT,0.00,WeatherDisplay:10.31,2013-06-02 11:20:00,
2013-06-02 07:30:00,66.5,63.8,29.89,South,191,3.0,6.0,91,0.00,SCT,SCT,0.00,WeatherDisplay:10.31,2013-06-02 11:30:00,
2013-06-02 07:40:00,67.0,63.7,29.89,South,184,1.0,8.0,89,0.00,SCT,SCT,0.00,WeatherDisplay:10.31,2013-06-02 11:40:00,
2013-06-02 07:50:00,67.8,64.1,29.89,South,176,2.0,7.0,88,0.00,SCT,SCT,0.00,WeatherDisplay:10.31,2013-06-02 11:50:00,
2013-06-02 08:00:00,68.0,64.3,29.89,South,179,3.0,9.0,88,0.00,SCT,SCT,0.00,WeatherDisplay:10.31,2013-06-02 12:00:00,
2013-06-02 08:10:00,68.4,64.3,29.89,South,186,1.0,9.0,87,0.00,FEW,FEW,0.00,WeatherDisplay:10.31,2013-06-02 12:10:00,
2013-06-02 08:20:00,69.4,65.0,29.88,SSW,195,2.0,7.0,86,0.00,FEW,FEW,0.00,WeatherDisplay:10.31,2013-06-02 12:20:00,
2013-06-02 08:30:00,70.0,65.3,29.88,South,173,3.0,6.0,85,0.00,FEW,FEW,0.00,WeatherDisplay:10.31,2013-06-02 12:30:00,
2013-06-02 08:40:00,70.6,65.5,29.88,South,178,2.0,12.0,84,0.00,FEW,FEW,0.00,WeatherDisplay:10.31,2013-06-02 12:40:00,
2013-06-02 08:50:00,71.3,65.5,29.88,South,174,3.0,6.0,82,0.00,FEW,FEW,0.00,WeatherDisplay:10.31,2013-06-02 12:50:00,
2013-06-02 09:00:00,70.8,65.0,29.88,SSE,159,6.0,9.0,82,0.00,FEW,FEW,0.00,WeatherDisplay:10.31,2013-06-02 13:00:00,
2013-06-02 09:10:00,70.8,65.0,29.88,South,178,5.0,10.0,82,0.00,SCT,SCT,0.00,WeatherDisplay:10.31,2013-06-02 13:10:00,
2013-06-02 09:20:00,71.5,65.4,29.87,South,189,5.0,10.0,81,0.00,SCT,SCT,0.00,WeatherDisplay:10.31,2013-06-02 13:20:00,
2013-06-02 09:30:00,72.1,65.5,29.87,SSE,167,6.0,8.0,80,0.00,SCT,SCT,0.00,WeatherDisplay:10.31,2013-06-02 13:30:00,
2013-06-02 09:40:00,71.9,65.4,29.87,South,182,7.0,13.0,80,0.00,SCT,SCT,0.00,WeatherDisplay:10.31,2013-06-02 13:40:00,
2013-06-02 09:50:00,72.4,65.9,29.87,SSW,193,5.0,10.0,80,0.00,SCT,SCT,0.00,WeatherDisplay:10.31,2013-06-02 13:50:00,
2013-06-02 10:00:00,73.0,66.1,29.87,South,186,6.0,12.0,79,0.00,SCT,SCT,0.00,WeatherDisplay:10.31,2013-06-02 14:00:00,
2013-06-02 10:10:00,73.7,66.8,29.86,South,173,6.0,8.0,79,0.00,SCT,SCT,0.00,WeatherDisplay:10.31,2013-06-02 14:10:00,
2013-06-02 10:20:00,73.9,66.6,29.86,South,176,5.0,12.0,78,0.00,SCT,SCT,0.00,WeatherDisplay:10.31,2013-06-02 14:20:00,
2013-06-02 10:30:00,75.1,67.0,29.86,South,181,6.0,12.0,76,0.00,SCT,SCT,0.00,WeatherDisplay:10.31,2013-06-02 14:30:00,
2013-06-02 10:40:00,74.8,66.7,29.86,South,181,9.0,14.0,76,0.00,SCT,SCT,0.00,WeatherDisplay:10.31,2013-06-02 14:40:00,
2013-06-02 10:50:00,74.3,66.3,29.87,South,181,7.0,13.0,76,0.00,SCT,SCT,0.00,WeatherDisplay:10.31,2013-06-02 14:50:00,
2013-06-02 11:00:00,74.1,66.4,29.86,SSW,193,6.0,13.0,77,0.00,SCT,SCT,0.00,WeatherDisplay:10.31,2013-06-02 15:00:00,
2013-06-02 11:10:00,74.4,66.3,29.87,South,179,7.0,12.0,76,0.00,SCT,SCT,0.00,WeatherDisplay:10.31,2013-06-02 15:10:00,
2013-06-02 11:20:00,74.4,65.9,29.86,South,169,5.0,13.0,75,0.00,SCT,SCT,0.00,WeatherDisplay:10.31,2013-06-02 15:20:00,
2013-06-02 11:30:00,74.3,66.2,29.86,South,189,6.0,13.0,76,0.00,SCT,SCT,0.00,WeatherDisplay:10.31,2013-06-02 15:30:00,
2013-06-02 11:40:00,75.3,66.5,29.86,SSW,192,3.0,10.0,74,0.00,SCT,SCT,0.00,WeatherDisplay:10.31,2013-06-02 15:40:00,
2013-06-02 11:50:00,75.3,66.5,29.86,South,181,5.0,12.0,74,0.00,SCT,SCT,0.00,WeatherDisplay:10.31,2013-06-02 15:50:00,
2013-06-02 12:00:00,76.4,67.1,29.86,SSW,200,6.0,9.0,73,0.00,SCT,SCT,0.00,WeatherDisplay:10.31,2013-06-02 16:00:00,
2013-06-02 12:10:00,75.2,65.9,29.86,South,188,8.0,15.0,73,0.00,SCT,SCT,0.00,WeatherDisplay:10.31,2013-06-02 16:10:00,
2013-06-02 12:20:00,74.9,66.1,29.86,SSW,195,5.0,17.0,74,0.00,SCT,SCT,0.00,WeatherDisplay:10.31,2013-06-02 16:20:00,
2013-06-02 12:30:00,75.3,66.0,29.86,South,190,5.0,13.0,73,0.00,SCT,SCT,0.00,WeatherDisplay:10.31,2013-06-02 16:30:00,
2013-06-02 12:40:00,75.5,65.5,29.86,SSW,200,6.0,13.0,71,0.00,SCT,SCT,0.00,WeatherDisplay:10.31,2013-06-02 16:40:00,
2013-06-02 12:50:00,74.9,65.3,29.85,South,186,8.0,15.0,72,0.00,SCT,SCT,0.00,WeatherDisplay:10.31,2013-06-02 16:50:00,
2013-06-02 13:00:00,75.8,65.8,29.85,South,183,8.0,13.0,71,0.00,SCT,SCT,0.00,WeatherDisplay:10.31,2013-06-02 17:00:00,
2013-06-02 13:10:00,75.8,65.7,29.85,South,186,5.0,12.0,71,0.00,BKN,BKN,0.00,WeatherDisplay:10.31,2013-06-02 17:10:00,
2013-06-02 13:20:00,76.0,65.9,29.85,South,183,9.0,15.0,71,0.00,BKN,BKN,0.00,WeatherDisplay:10.31,2013-06-02 17:20:00,
2013-06-02 13:30:00,76.1,65.6,29.84,South,187,7.0,15.0,70,0.00,BKN,BKN,0.00,WeatherDisplay:10.31,2013-06-02 17:30:00,
2013-06-02 13:40:00,76.5,66.4,29.84,South,186,7.0,12.0,71,0.00,BKN,BKN,0.00,WeatherDisplay:10.31,2013-06-02 17:40:00,
2013-06-02 13:50:00,75.3,66.0,29.84,South,187,5.0,16.0,73,0.00,BKN,BKN,0.00,WeatherDisplay:10.31,2013-06-02 17:50:00,
2013-06-02 14:00:00,75.0,65.3,29.84,SSW,198,7.0,15.0,72,0.00,BKN,BKN,0.00,WeatherDisplay:10.31,2013-06-02 18:00:00,
2013-06-02 14:10:00,75.2,65.2,29.83,SSW,193,3.0,12.0,71,0.00,SCT,SCT,0.00,WeatherDisplay:10.31,2013-06-02 18:10:00,
2013-06-02 14:20:00,75.2,64.8,29.83,SSW,198,7.0,12.0,70,0.00,SCT,SCT,0.00,WeatherDisplay:10.31,2013-06-02 18:20:00,
2013-06-02 14:30:00,74.5,64.9,29.83,SSW,200,8.0,18.0,72,0.00,SCT,SCT,0.00,WeatherDisplay:10.31,2013-06-02 18:30:00,
2013-06-02 14:40:00,75.9,65.8,29.83,South,190,3.0,15.0,71,0.00,SCT,SCT,0.00,WeatherDisplay:10.31,2013-06-02 18:40:00,
2013-06-02 14:50:00,75.7,65.2,29.83,SSW,193,8.0,17.0,70,0.00,SCT,SCT,0.00,WeatherDisplay:10.31,2013-06-02 18:50:00,
2013-06-02 15:00:00,74.5,64.5,29.82,South,186,6.0,15.0,71,0.00,SCT,SCT,0.00,WeatherDisplay:10.31,2013-06-02 19:00:00,
2013-06-02 15:10:00,74.4,64.7,29.82,SSW,192,7.0,15.0,72,0.00,BKN,BKN,0.00,WeatherDisplay:10.31,2013-06-02 19:10:00,
2013-06-02 15:20:00,73.9,64.3,29.82,South,185,10.0,17.0,72,0.00,BKN,BKN,0.00,WeatherDisplay:10.31,2013-06-02 19:20:00,
2013-06-02 15:30:00,74.4,64.8,29.81,South,191,6.0,16.0,72,0.00,BKN,BKN,0.00,WeatherDisplay:10.31,2013-06-02 19:30:00,
2013-06-02 15:40:00,74.0,64.8,29.81,South,185,9.0,20.0,73,0.00,BKN,BKN,0.00,WeatherDisplay:10.31,2013-06-02 19:40:00,
2013-06-02 15:50:00,73.7,64.1,29.81,South,181,9.0,24.0,72,0.00,BKN,BKN,0.00,WeatherDisplay:10.31,2013-06-02 19:50:00,
2013-06-02 16:00:00,73.3,64.1,29.81,South,183,12.0,20.0,73,0.00,BKN,BKN,0.00,WeatherDisplay:10.31,2013-06-02 20:00:00,
2013-06-02 16:10:00,71.6,63.6,29.81,South,189,7.0,18.0,76,0.00,BKN,BKN,0.00,WeatherDisplay:10.31,2013-06-02 20:10:00,
2013-06-02 16:20:00,71.9,63.5,29.81,South,188,9.0,24.0,75,0.00,BKN,BKN,0.00,WeatherDisplay:10.31,2013-06-02 20:20:00,
2013-06-02 16:30:00,71.6,63.6,29.81,South,191,10.0,16.0,76,0.00,BKN,BKN,0.00,WeatherDisplay:10.31,2013-06-02 20:30:00,
2013-06-02 16:40:00,71.3,63.8,29.80,South,187,7.0,18.0,77,0.00,BKN,BKN,0.00,WeatherDisplay:10.31,2013-06-02 20:40:00,
2013-06-02 16:50:00,71.0,63.4,29.80,South,186,8.0,17.0,77,0.00,BKN,BKN,0.00,WeatherDisplay:10.31,2013-06-02 20:50:00,
2013-06-02 17:00:00,70.1,63.3,29.80,South,186,7.0,20.0,79,0.00,BKN,BKN,0.00,WeatherDisplay:10.31,2013-06-02 21:00:00,
2013-06-02 17:10:00,69.7,62.9,29.80,South,184,5.0,15.0,79,0.00,BKN,BKN,0.00,WeatherDisplay:10.31,2013-06-02 21:10:00,
2013-06-02 17:20:00,69.6,63.2,29.80,South,184,12.0,21.0,80,0.00,BKN,BKN,0.00,WeatherDisplay:10.31,2013-06-02 21:20:00,
2013-06-02 17:30:00,70.0,63.2,29.79,South,191,6.0,18.0,79,0.00,BKN,BKN,0.00,WeatherDisplay:10.31,2013-06-02 21:30:00,
2013-06-02 17:40:00,71.1,63.5,29.79,South,188,3.0,14.0,77,0.00,BKN,BKN,0.00,WeatherDisplay:10.31,2013-06-02 21:40:00,
2013-06-02 17:50:00,71.2,64.0,29.79,South,191,5.0,12.0,78,0.00,BKN,BKN,0.00,WeatherDisplay:10.31,2013-06-02 21:50:00,
2013-06-02 18:00:00,71.0,64.1,29.80,South,186,7.0,13.0,79,0.00,BKN,BKN,0.00,WeatherDisplay:10.31,2013-06-02 22:00:00,
2013-06-02 18:10:00,69.8,63.0,29.80,South,188,5.0,14.0,79,0.00,BKN,BKN,0.00,WeatherDisplay:10.31,2013-06-02 22:10:00,
2013-06-02 18:20:00,70.0,63.2,29.80,South,180,5.0,10.0,79,0.00,BKN,BKN,0.00,WeatherDisplay:10.31,2013-06-02 22:20:00,
2013-06-02 18:30:00,69.7,63.6,29.80,South,186,3.0,12.0,81,0.00,BKN,BKN,0.00,WeatherDisplay:10.31,2013-06-02 22:30:00,
2013-06-02 18:40:00,68.9,62.8,29.80,South,182,2.0,14.0,81,0.00,BKN,BKN,0.00,WeatherDisplay:10.31,2013-06-02 22:40:00,
2013-06-02 18:50:00,68.5,63.1,29.80,South,188,2.0,12.0,83,0.00,BKN,BKN,0.00,WeatherDisplay:10.31,2013-06-02 22:50:00,
2013-06-02 19:00:00,69.0,63.6,29.80,South,188,3.0,9.0,83,0.00,BKN,BKN,0.00,WeatherDisplay:10.31,2013-06-02 23:00:00,
2013-06-02 19:10:00,68.7,63.0,29.80,South,181,5.0,13.0,82,0.00,OVC,OVC,0.00,WeatherDisplay:10.31,2013-06-02 23:10:00,
2013-06-02 19:20:00,69.0,63.6,29.80,South,187,3.0,9.0,83,0.00,OVC,OVC,0.00,WeatherDisplay:10.31,2013-06-02 23:20:00,
2013-06-02 19:30:00,68.8,63.5,29.80,South,186,5.0,14.0,83,0.00,OVC,OVC,0.00,WeatherDisplay:10.31,2013-06-02 23:30:00,
2013-06-02 19:40:00,67.9,63.2,29.81,South,179,3.0,8.0,85,0.00,OVC,OVC,0.00,WeatherDisplay:10.31,2013-06-02 23:40:00,
2013-06-02 19:50:00,68.0,63.3,29.81,South,191,2.0,6.0,85,0.00,OVC,OVC,0.00,WeatherDisplay:10.31,2013-06-02 23:50:00,
2013-06-02 20:00:00,67.8,63.1,29.81,SSW,199,5.0,9.0,85,0.00,OVC,OVC,0.00,WeatherDisplay:10.31,2013-06-03 00:00:00,
2013-06-02 20:10:00,67.2,62.9,29.82,South,180,3.0,7.0,86,0.00,BKN,BKN,0.00,WeatherDisplay:10.31,2013-06-03 00:10:00,
2013-06-02 20:20:00,66.5,62.2,29.82,South,186,2.0,8.0,86,0.00,BKN,BKN,0.00,WeatherDisplay:10.31,2013-06-03 00:20:00,
2013-06-02 20:30:00,66.0,61.7,29.83,South,189,2.0,9.0,86,0.00,BKN,BKN,0.00,WeatherDisplay:10.31,2013-06-03 00:30:00,
2013-06-02 20:40:00,66.0,62.0,29.83,SSW,192,1.0,8.0,87,0.00,BKN,BKN,0.00,WeatherDisplay:10.31,2013-06-03 00:40:00,
2013-06-02 20:50:00,66.2,62.2,29.83,South,191,5.0,7.0,87,0.00,BKN,BKN,0.00,WeatherDisplay:10.31,2013-06-03 00:50:00,
2013-06-02 21:00:00,66.0,62.1,29.83,South,189,2.0,12.0,87,0.00,BKN,BKN,0.00,WeatherDisplay:10.31,2013-06-03 01:00:00,
2013-06-02 21:10:00,66.1,62.5,29.83,South,191,0.0,7.0,88,0.00,BKN,BKN,0.00,WeatherDisplay:10.31,2013-06-03 01:10:00,
2013-06-02 21:20:00,66.4,62.7,29.83,South,180,0.0,3.0,88,0.00,BKN,BKN,0.00,WeatherDisplay:10.31,2013-06-03 01:20:00,
2013-06-02 21:30:00,66.9,63.3,29.83,SSW,196,1.0,3.0,88,0.00,BKN,BKN,0.00,WeatherDisplay:10.31,2013-06-03 01:30:00,
2013-06-02 21:40:00,67.5,63.5,29.83,WSW,247,2.0,3.0,87,0.00,BKN,BKN,0.00,WeatherDisplay:10.31,2013-06-03 01:40:00,
2013-06-02 21:50:00,67.7,63.7,29.82,SW,215,1.0,3.0,87,0.00,BKN,BKN,0.00,WeatherDisplay:10.31,2013-06-03 01:50:00,
2013-06-02 22:00:00,68.0,63.7,29.83,South,183,1.0,6.0,86,0.00,BKN,BKN,0.00,WeatherDisplay:10.31,2013-06-03 02:00:00,
2013-06-02 22:10:00,67.9,62.9,29.83,South,181,5.0,9.0,84,0.00,BKN,BKN,0.00,WeatherDisplay:10.31,2013-06-03 02:10:00,
2013-06-02 22:20:00,65.9,61.6,29.84,South,179,3.0,8.0,86,0.00,BKN,BKN,0.00,WeatherDisplay:10.31,2013-06-03 02:20:00,
2013-06-02 22:30:00,66.0,63.0,29.83,SSW,196,2.0,9.0,90,0.00,BKN,BKN,0.00,WeatherDisplay:10.31,2013-06-03 02:30:00,
2013-06-02 22:40:00,66.8,64.1,29.83,South,189,3.0,9.0,91,0.00,BKN,BKN,0.00,WeatherDisplay:10.31,2013-06-03 02:40:00,
2013-06-02 22:50:00,66.9,63.9,29.83,SSW,196,3.0,9.0,90,0.00,BKN,BKN,0.00,WeatherDisplay:10.31,2013-06-03 02:50:00,
2013-06-02 23:00:00,67.4,64.0,29.83,SW,223,1.0,8.0,89,0.00,BKN,BKN,0.00,WeatherDisplay:10.31,2013-06-03 03:00:00,
2013-06-02 23:10:00,67.7,64.0,29.83,SW,217,3.0,12.0,88,0.00,-RA,-RA,0.00,WeatherDisplay:10.31,2013-06-03 03:10:00,
2013-06-02 23:20:00,67.4,63.7,29.84,SW,221,5.0,9.0,88,0.00,-RA,-RA,0.00,WeatherDisplay:10.31,2013-06-03 03:20:00,
2013-06-02 23:30:00,66.8,63.5,29.83,SSW,196,2.0,8.0,89,0.00,-RA,-RA,0.00,WeatherDisplay:10.31,2013-06-03 03:30:00,
2013-06-02 23:40:00,66.5,63.5,29.83,SSW,197,3.0,6.0,90,0.00,-RA,-RA,0.00,WeatherDisplay:10.31,2013-06-03 03:40:00,
2013-06-02 23:50:00,66.2,63.2,29.84,South,182,0.0,7.0,90,0.00,-RA,-RA,0.00,WeatherDisplay:10.31,2013-06-03 03:50:00,